GW2233 Weather Reports


Display with metric or nautical units.
time (UTC)temp
F
wind
direction
speed
MPH
gust
MPH
rain 1hr
in
rain 24hr
in
rain mn
in
humidity
%
barometer
mb
20260504174319 70 233 1.0 6.0 0.00 0.00 0.00 44 1009.6
20260504174303 70 236 1.0 6.0 0.00 0.00 0.00 44 1009.6
20260504174204 71 235 1.0 6.0 0.00 0.00 0.00 44 1009.5
20260504174004 71 236 1.0 6.0 0.00 0.00 0.00 42 1009.7
20260504173903 71 236 1.0 6.0 0.00 0.00 0.00 42 1009.7
20260504173803 71 233 1.0 6.0 0.00 0.00 0.00 42 1009.6
20260504173705 71 232 2.0 6.0 0.00 0.00 0.00 43 1009.6
20260504173603 72 235 2.0 6.0 0.00 0.00 0.00 41 1009.7
20260504173504 72 234 2.0 6.0 0.00 0.00 0.00 42 1009.6
20260504173419 72 232 2.0 6.0 0.00 0.00 0.00 38 1009.7
20260504173403 72 231 2.0 6.0 0.00 0.00 0.00 38 1009.7
20260504173103 73 228 2.0 6.0 0.00 0.00 0.00 39 1009.6
20260504173003 73 227 2.0 6.0 0.00 0.00 0.00 37 1009.4
20260504172822 73 227 2.0 8.0 0.00 0.00 0.00 38 1009.5
20260504172804 73 228 2.0 8.0 0.00 0.00 0.00 38 1009.5
20260504172704 73 228 2.0 8.0 0.00 0.00 0.00 36 1009.3
20260504172518 74 228 2.0 8.0 0.00 0.00 0.00 36 1009.4
20260504172503 74 229 2.0 8.0 0.00 0.00 0.00 36 1009.4
20260504172404 74 231 2.0 8.0 0.00 0.00 0.00 35 1009.6
20260504172204 74 232 3.0 8.0 0.00 0.00 0.00 35 1009.5
20260504172109 74 233 3.0 8.0 0.00 0.00 0.00 35 1009.5
20260504172004 74 236 3.0 8.0 0.00 0.00 0.00 36 1009.5
20260504171905 74 239 3.0 8.0 0.00 0.00 0.00 34 1009.4
20260504171803 74 239 3.0 8.0 0.00 0.00 0.00 35 1009.4
20260504171704 75 244 3.0 10.0 0.00 0.00 0.00 34 1009.4
20260504171604 75 244 3.0 10.0 0.00 0.00 0.00 33 1009.4
20260504171503 75 246 3.0 10.0 0.00 0.00 0.00 34 1009.4
20260504171403 75 247 3.0 10.0 0.00 0.00 0.00 35 1009.3
20260504171303 75 250 3.0 10.0 0.00 0.00 0.00 32 1009.4
20260504171215 75 250 3.0 10.0 0.00 0.00 0.00 34 1009.5
20260504171103 75 245 3.0 10.0 0.00 0.00 0.00 33 1009.5
20260504170919 75 243 3.0 10.0 0.00 0.00 0.00 34 1009.5
20260504170903 75 242 3.0 10.0 0.00 0.00 0.00 33 1009.5
20260504170804 75 243 3.0 10.0 0.00 0.00 0.00 33 1009.5
20260504170605 76 243 3.0 10.0 0.00 0.00 0.00 33 1009.3
20260504170504 76 237 2.0 7.0 0.00 0.00 0.00 33 1009.3
20260504170403 76 235 3.0 7.0 0.00 0.00 0.00 33 1009.3
20260504170304 76 236 2.0 7.0 0.00 0.00 0.00 33 1009.3
20260504170203 76 238 2.0 7.0 0.00 0.00 0.00 32 1009.2
20260504160403 77 230 6.0 17.0 0.00 0.00 0.00 29 1009.3
20260504160304 77 227 6.0 17.0 0.00 0.00 0.00 29 1009.3
20260504160204 77 223 7.0 17.0 0.00 0.00 0.00 29 1009.4
20260504160103 77 228 7.0 17.0 0.00 0.00 0.00 29 1009.4
20260504141303 79 242 5.0 16.0 0.00 0.00 0.00 28 1009.9
20260504141218 79 244 5.0 16.0 0.00 0.00 0.00 28 1009.7
20260504141205 79 244 6.0 16.0 0.00 0.00 0.00 28 1009.7
20260504141104 79 244 6.0 16.0 0.00 0.00 0.00 28 1009.7
20260504141021 79 242 6.0 16.0 0.00 0.00 0.00 28 1009.9
20260504140903 79 243 7.0 16.0 0.00 0.00 0.00 28 1009.9
20260504140704 79 245 7.0 16.0 0.00 0.00 0.00 27 1009.9
20260504140605 79 246 6.0 16.0 0.00 0.00 0.00 28 1010.0
20260504140503 79 242 7.0 16.0 0.00 0.00 0.00 28 1009.9
20260504140403 79 242 7.0 16.0 0.00 0.00 0.00 27 1010.0
20260504140318 79 243 7.0 16.0 0.00 0.00 0.00 28 1010.0
20260504140305 79 242 6.0 14.0 0.00 0.00 0.00 28 1010.0
20260504140216 79 240 6.0 14.0 0.00 0.00 0.00 27 1009.9
20260504140205 79 240 6.0 14.0 0.00 0.00 0.00 27 1009.9